Location: Steinbach
(49.5170°N, 96.6830°W)
Time: 20:45:44
(UTC-05:00)

Daily predictions for brighter satellites

Satellite Brightness Start Highest point End
(mag) Time Altitude Azimuth Time Altitude Azimuth Time Altitude Azimuth
CZ-3B DEB 4.3 21:59:02 10° W 22:09:12 74° NNW 22:22:19 10° ENE
Cosmos 1814 Rocket 4.2 22:13:41 10° NNW 22:19:03 68° ENE 22:24:20 10° SSE
Cosmos 371 Rocket 3.5 22:15:42 10° NNW 22:20:32 65° ENE 22:25:19 10° SSE
Cosmos 1674 2.7 22:17:13 10° S 22:20:59 83° W 22:24:46 10° N
Cosmos 1455 4.3 22:21:45 10° NNE 22:24:10 16° ENE 22:26:32 10° ESE
Cosmos 1908 4.2 22:21:46 10° NNW 22:25:31 46° W 22:29:13 10° SSW
Cosmos 2227 Rocket 4.0 22:21:24 10° WSW 22:26:38 37° NW 22:31:53 10° NNE
Okean 3 Rocket 4.3 22:23:05 10° SSW 22:27:31 59° WNW 22:31:57 10° N
Cosmos 841 Rocket 3.9 22:23:25 10° NNW 22:28:35 53° ENE 22:33:41 10° SE
MetOp-A 4.4 22:23:37 10° S 22:28:57 70° WSW 22:34:19 10° NNW
Lacrosse 5 2.3 22:24:27 10° WNW 22:29:23 52° SW 22:34:17 10° SSE
Cosmos 2016 Rocket 4.1 22:23:31 10° N 22:29:51 90° W 22:36:03 10° S
Cosmos 1763 Rocket 3.6 22:25:08 10° NNW 22:30:15 66° ENE 22:35:18 10° SSE
Cosmos 1943 3.4 22:25:21 10° NNW 22:30:59 65° ENE 22:36:37 10° SE
ARGOS 3.3 22:25:35 10° SSE 22:31:01 84° WSW 22:36:29 10° NNW
SPOT 5 3.0 22:27:17 10° SSE 22:32:12 88° WSW 22:37:25 10° NNW
SL-16 R/B 3.9 22:27:30 10° NW 22:32:17 28° WSW 22:37:01 10° SSW
Abrixas rocket 2.9 22:32:43 10° W 22:35:46 37° SSW 22:38:41 11° SE
Cosmos 1242 Rocket 4.1 22:32:29 10° NNW 22:35:54 34° W 22:39:17 10° SSW
KORONAS-FOTON 3.9 22:34:37 10° SSW 22:38:25 78° W 22:42:14 10° N
Cosmos 1766 Rocket 3.6 22:34:58 10° S 22:39:19 86° WNW 22:43:42 10° N
Cosmos 1328 Rocket 3.5 22:35:56 10° N 22:40:19 80° E 22:44:38 10° SSE
SPOT 1/Viking Rocket 3.6 22:35:42 10° SSE 22:40:50 83° ENE 22:46:02 10° NNW
Helios 1B rocket 4.4 22:38:14 10° N 22:41:58 32° WNW 22:45:40 10° SW
Cosmos 1515 Rocket 3.6 22:41:58 10° N 22:46:19 68° ENE 22:50:33 10° SSE
Cosmos 1151 Rocket 3.4 22:42:13 10° N 22:46:33 54° ENE 22:50:35 11° SSE
USA 245 3.9 22:45:26 10° S 22:48:56 56° W 22:53:23 10° NNW
Cosmos 2084 3.8 22:47:47 10° SW 22:51:41 62° NW 22:55:28 10° NE
IGS 5A 4.0 22:48:26 12° SE 22:52:08 47° ENE 22:56:10 10° N
Landsat 7 3.9 22:47:28 10° SSE 22:52:09 73° ENE 22:56:55 10° N
Cosmos 2233 Rocket 4.1 22:47:58 10° N 22:54:11 65° ENE 23:00:00 11° SSE
H-2A R/B 2.7 22:51:01 12° SE 22:54:45 43° ENE 22:58:45 10° N
Cosmos 2228 Rocket 3.3 22:50:14 10° NNW 22:54:51 81° W 22:59:25 10° S
Cosmos 1743 Rocket 3.5 22:51:05 10° S 22:55:23 67° E 22:59:42 10° NNE
Cosmos 1867 4.0 22:53:58 10° SW 22:59:24 70° NW 23:04:53 10° NE
Cosmos 1703 4.2 22:57:47 13° SSE 23:00:48 33° E 23:04:25 10° NNE
USA 234 3.4 22:54:49 10° ENE 23:01:10 50° SE 23:07:29 10° SSW
SL-08 RB Rocket 4.5 23:00:42 10° S 23:05:08 49° W 23:09:38 10° NNW
Terra 1.9 23:02:53 13° SSE 23:07:05 73° ENE 23:11:51 10° N
Meteor 2-12 Rocket 4.5 23:02:39 10° N 23:08:45 71° ENE 23:14:05 14° SSE
Meteor 1-11 4.3 23:06:27 10° S 23:12:13 67° E 23:17:59 10° NNE
Nimbus 7 Rocket 4.5 23:07:17 10° NNE 23:13:22 90° ESE 23:19:21 10° SSW
Cosmos 304 Rocket 3.8 23:16:54 10° NNW 23:21:44 79° ENE 23:25:22 17° SSE
Cosmos 1626 2.3 23:19:15 16° S 23:22:03 57° E 23:25:44 10° NNE
Cosmos 1726 4.1 23:19:32 10° NW 23:22:33 24° W 23:25:34 10° SW
Cosmos 220 Rocket 4.2 23:18:21 10° SSW 23:22:46 78° WNW 23:27:10 10° NNE
Meteor 1-27 4.4 23:17:08 10° NNW 23:22:58 77° W 23:28:05 13° S
Cosmos 2058 2.9 23:21:05 13° S 23:24:47 75° E 23:29:01 10° NNE
H-2A R/B 3.0 23:20:03 10° S 23:25:10 47° W 23:30:26 10° NNW
Cosmos 1300 4.4 23:23:20 10° NNW 23:26:42 29° W 23:30:02 10° SSW
CZ-4B R/B 4.2 23:22:56 10° NNE 23:27:55 39° E 23:31:25 18° SSE
Cosmos 2123 Rocket 4.5 23:23:16 10° SSW 23:29:21 60° WNW 23:35:32 10° N
Cosmos 540 Rocket 3.5 23:24:24 10° NNW 23:29:35 80° ENE 23:33:24 18° SSE
SL-14 R/B 4.5 23:30:22 10° SW 23:34:07 41° WNW 23:37:52 10° N
Cosmos 2263 Rocket 2.1 23:29:31 10° SSW 23:35:02 69° ESE 23:40:37 10° NNE
Spot 4 3.9 23:34:13 19° SSE 23:37:46 75° ENE 23:42:39 10° NNW
ERBS 4.4 23:36:10 10° W 23:38:24 17° SW 23:39:46 14° SSW
Sich 1 4.0 23:36:53 19° SE 23:39:05 31° E 23:42:52 10° NNE
ATLAS 5 CENTAUR R/B 3.8 23:35:29 10° W 23:39:58 35° NNW 23:44:55 10° NE
COSMOS 2406 3.9 23:34:45 10° NNW 23:40:14 47° NE 23:44:53 14° SE
Cosmos 2285 Rocket 4.1 23:35:21 10° NNW 23:41:42 78° WSW 23:46:33 18° SSE
PSLV R/B 2.9 23:40:58 27° S 23:42:21 80° WSW 23:45:14 10° NNW
deb Chang Zheng 4 3.6 23:39:16 10° NNE 23:43:38 68° ESE 23:46:51 18° S
Tiangong 1 3.1 23:43:45 10° SW 23:44:32 13° SW 23:44:32 13° SW
SL-24 R/B 4.5 23:43:08 21° SSE 23:45:47 80° ENE 23:50:03 10° NNW
Cosmos 2034 Rocket 4.3 23:40:47 10° N 23:47:04 57° ENE 23:51:34 19° SSE
Cosmos 1707 Rocket 3.7 23:43:48 10° N 23:48:17 67° ENE 23:51:03 23° SSE
Cosmos 1356 4.2 23:45:24 11° SSW 23:48:38 50° WNW 23:52:05 10° N
ALOS 2 4.1 23:48:17 14° ESE 23:51:14 27° ENE 23:54:56 10° N
DELTA 2 DEB (DPAF) 4.1 23:48:50 22° SSE 23:51:44 83° ENE 23:56:13 10° NNW
Cosmos 2151 3.7 23:47:41 10° SSW 23:51:53 52° WNW 23:56:07 10° N
